Location: Ascstraat
(50.8333°N, 3.8500°E)
Time: 19:09:29
(UTC+00:00)

Daily predictions for brighter satellites

Satellite Brightness Start Highest point End
(mag) Time Altitude Azimuth Time Altitude Azimuth Time Altitude Azimuth
Cosmos 2016 Rocket 3.9 18:38:22 10° S 18:44:26 75° E 18:50:34 10° NNE
TSX-5 4.2 18:42:34 10° NNW 18:45:27 31° NE 18:48:18 10° ESE
Resurs 1-3 3.6 18:41:27 10° SSE 18:45:48 88° ENE 18:50:10 10° NNW
CARTOSAT-1 4.1 18:43:34 10° SE 18:47:33 40° ENE 18:51:32 10° N
DMSP B5D1-3 4.5 18:42:44 10° NNE 18:47:49 73° ESE 18:52:53 10° S
SPOT 5 4.4 18:46:04 10° E 18:49:12 18° ENE 18:52:15 10° NNE
SPOT 1/Viking Rocket 3.6 18:44:11 10° SSE 18:49:22 85° ENE 18:54:35 10° NNW
ATLAS 2AS CENTAUR R/B 3.4 18:45:36 10° WSW 18:52:48 61° NW 18:59:44 10° NE
ATLAS CENTAUR R/B 3.6 18:50:26 10° WNW 18:54:59 46° SW 19:01:57 10° SSE
Cosmos 1898 Rocket 4.1 18:49:48 10° NNW 18:55:04 63° WSW 19:00:16 10° S
Cosmos 1151 Rocket 3.0 18:52:24 10° N 18:56:44 90° SW 19:00:58 10° S
ARGOS Delta rocket 4.0 18:52:51 10° SSE 18:57:58 68° ENE 19:02:51 10° N
Cosmos 2360 Rocket 2.3 18:52:34 10° SSW 18:58:14 89° WNW 19:03:55 10° NNE
Okean O Rocket 2.5 18:55:17 10° SE 18:59:14 33° ENE 19:03:12 10° N
Cosmos 1340 2.4 18:57:35 10° S 19:00:45 51° E 19:03:58 10° NNE
USA 186 1.9 18:59:35 10° SSE 19:02:41 53° ENE 19:05:52 10° N
Meteor PRIRODA 3.7 18:59:45 10° S 19:03:03 67° WSW 19:06:22 10° NNW
Resurs 01 Rocket 1.7 18:59:21 10° SSE 19:03:41 58° ENE 19:08:04 10° N
Cosmos 2322 Rocket 2.7 19:01:30 10° SW 19:07:10 65° WNW 19:12:53 10° NNE
Cosmos 2237 Rocket 3.8 19:04:58 10° ESE 19:07:29 13° E 19:10:02 10° ENE
Helios 1A 2.8 19:04:40 10° NNE 19:08:46 75° ESE 19:12:49 10° S
ACS3 Solar Sail 2.3 19:06:13 10° SE 19:12:14 46° ENE 19:18:17 10° N
BlueWalker 3 1.8 19:08:42 10° WNW 19:12:29 85° NNE 19:15:32 15° ESE
NOSS 2-1 (E) 3.6 19:09:05 10° NW 19:12:36 55° NE 19:16:32 14° ESE
Cosmos 44 Rocket 3.3 19:08:04 10° NW 19:12:52 83° SW 19:17:33 10° SE
Cosmos 1515 Rocket 4.5 19:10:42 10° N 19:14:30 29° ENE 19:17:32 14° SE
Cosmos 2333 Rocket 2.5 19:09:23 10° SW 19:15:09 74° WNW 19:20:57 10° NNE
Okean-O 3.6 19:12:12 13° ESE 19:15:26 29° ENE 19:19:14 10° N
SL-08 R/B 3.6 19:11:14 10° NNE 19:16:09 78° WNW 19:21:05 10° SSW
ATLAS 3B R/B 4.2 19:10:05 10° NW 19:17:17 41° WSW 19:24:21 10° S
Feng Yun 1-1 Rocket 4.4 19:11:40 10° SSE 19:17:22 73° ENE 19:23:14 10° NNW
Cosmos 2219 Rocket 2.1 19:13:27 10° SSW 19:19:07 76° ESE 19:24:49 10° NNE
Cosmos 1626 4.0 19:18:43 10° NW 19:21:17 25° W 19:23:49 10° SSW
Meteor 1-5 Rocket 4.4 19:16:51 10° SSW 19:22:28 79° WNW 19:28:20 10° N
NOSS 2-1 (D) 3.4 19:19:05 10° NW 19:22:38 68° NE 19:26:15 16° SE
CSL-04 Rocket 3.6 19:18:34 10° SSE 19:23:57 76° ENE 19:29:17 10° NNW
BREEZE-M DEB (TANK) 2.4 19:22:11 10° SW 19:24:07 35° SSE 19:25:17 21° ESE
Cosmos 1842 3.3 19:21:31 10° N 19:25:03 48° ENE 19:27:54 15° SSE
USA 229 DEB 4.5 19:19:38 10° NW 19:26:54 61° SW 19:34:50 10° SSE
USA 229 4.4 19:19:47 10° NW 19:27:04 61° SW 19:34:58 10° SSE
SL-16 R/B 3.9 19:22:20 10° WSW 19:27:31 35° NW 19:32:43 10° NNE
SJ-6B 4.3 19:26:56 10° SSW 19:30:18 34° W 19:33:38 10° NNW
Cosmos 1766 Rocket 3.5 19:28:22 10° S 19:32:39 62° E 19:37:00 10° NNE
USA 267 3.7 19:29:00 12° E 19:35:00 59° NNE 19:41:26 10° WNW
Cosmos 2369 Rocket 4.2 19:32:15 10° N 19:35:49 16° NNE 19:39:23 10° ENE
BREEZE-M R/B 3.9 19:32:47 10° W 19:37:01 77° S 19:49:01 14° E
Meteor 2-17 Rocket 4.4 19:32:11 10° N 19:38:15 71° ENE 19:44:17 10° SSE
Cosmos 2322 3.7 19:34:22 10° SSW 19:39:56 63° ESE 19:45:32 10° NE
USA 276 1.6 19:37:48 10° W 19:40:37 76° S 19:41:31 37° ESE
Cosmos 1400 Rocket 3.2 19:38:11 10° NNW 19:42:02 62° W 19:45:46 10° S
Cosmos 1707 2.4 19:43:04 10° N 19:46:37 71° ENE 19:48:44 23° SSE
MOS 1 4.4 19:42:10 16° SE 19:46:39 61° ENE 19:52:16 10° N
PSLV R/B 3.6 19:44:58 24° SSE 19:46:59 62° ENE 19:50:32 10° N
Cosmos 1315 Rocket 3.7 19:43:36 10° N 19:47:10 31° ENE 19:48:17 26° E
CZ-4 R/B 3.0 19:45:24 10° SSW 19:48:49 32° W 19:52:19 10° NNW
In-Cosmos 22 4.4 19:43:33 10° N 19:49:14 57° ENE 19:53:04 20° SE
Cosmos 1733 3.6 19:49:20 32° ESE 19:49:47 34° E 19:52:57 10° NNE
Cosmos 1891 Rocket 4.4 19:43:50 10° S 19:49:51 74° E 19:56:02 10° NNE
Cosmos 1726 3.0 19:47:16 10° SSW 19:49:56 38° WNW 19:52:37 10° N
Cosmos 1408 Rocket 4.3 19:50:28 27° ESE 19:51:46 32° E 19:55:42 10° NNE
KORONAS-FOTON 4.0 19:53:13 10° NNW 19:56:55 68° W 19:59:47 16° S
Lacrosse 4 Rocket 2.4 19:53:04 10° NW 19:57:12 43° WSW 20:00:26 15° S
Cosmos 1536 2.8 19:55:09 23° SSE 19:57:14 53° E 20:00:58 10° NNE
COSMOS 2428 2.6 19:53:20 10° SSW 19:59:00 71° ESE 20:04:44 10° NNE
Cosmos 1818 3.5 19:53:44 10° SW 19:59:12 86° SE 20:04:44 10° NE
Nadezhda 4 Rocket 4.0 19:54:47 10° N 20:01:01 69° ENE 20:05:35 19° SSE
Cosmos 1356 Rocket 3.4 19:57:01 10° NNW 20:01:13 87° W 20:03:50 22° S
Meteor 1-4 Rocket 2.6 19:58:37 10° NNW 20:01:15 48° W 20:02:21 28° SSW
Cosmos 1943 Rocket 2.2 19:58:18 10° NNW 20:03:46 61° NE 20:06:27 30° SE
Cosmos 1674 4.0 20:02:01 10° NNW 20:05:04 33° W 20:08:05 10° SSW
Meteor 1-14 Rocket 4.2 20:01:19 10° SSW 20:06:52 87° WNW 20:12:27 10° NNE
Cosmos 1513 Rocket 4.4 20:02:43 10° S 20:08:47 89° W 20:14:55 10° N
SL-14 R/B 4.1 20:05:38 10° N 20:09:02 30° ENE 20:09:03 30° ENE
USA 59 Rocket 0.4 20:05:50 10° NW 20:09:34 57° SW 20:11:54 28° SSE
Cosmos 2026 Rocket 4.3 20:03:49 10° N 20:09:52 46° ENE 20:12:32 30° SE
Terra 2.2 20:09:10 34° ESE 20:10:39 45° ENE 20:15:08 10° N
Cosmos 1464 Rocket 3.9 20:06:03 10° S 20:12:19 77° E 20:18:42 10° NNE
Meteor 1-11 Rocket 3.7 20:09:43 15° S 20:14:19 60° E 20:19:48 10° NNE
Cosmos 1805 Rocket 4.1 20:14:27 35° E 20:14:27 35° E 20:18:20 10° NNE
Ariane Rocket 3.6 20:14:45 32° E 20:16:09 39° ENE 20:20:50 10° N
Cosmos 1125 Rocket 3.4 20:11:23 10° NNW 20:16:36 74° ENE 20:18:45 36° SE
SPOT 3 Rocket 4.2 20:17:15 33° E 20:18:40 39° ENE 20:23:26 10° N
USA 290 2.7 20:15:55 10° NNW 20:19:08 57° WSW 20:19:44 47° SSW
Cosmos 2278 Rocket 2.3 20:14:18 10° NNW 20:19:59 77° WSW 20:22:57 29° SSE
ERS-1 Rocket 3.0 20:19:35 37° SE 20:21:29 66° ENE 20:26:28 10° N
BREEZE-M DEB (TANK) 3.9 20:19:26 10° W 20:22:39 78° S 20:26:06 29° ESE
Meteor 2-9 Rocket 4.1 20:20:43 28° SSE 20:23:29 60° E 20:28:48 10° NNE
USA 306 4.4 20:22:29 10° SW 20:23:20 17° SSW 20:23:20 17° SSW
NOSS 2-1 (C) 4.4 20:22:27 10° WNW 20:26:03 41° SW 20:27:51 28° S
SPOT 5 2.9 20:24:19 29° S 20:26:46 74° WSW 20:31:20 10° NNW
IRS-1A Rocket 4.3 20:25:49 31° SSE 20:28:44 83° ENE 20:34:30 10° NNW
Cosmos 2034 Rocket 3.9 20:26:34 20° S 20:31:05 73° E 20:37:16 10° NNE
Okean 3 Rocket 4.0 20:28:34 10° SSW 20:33:01 63° WNW 20:37:28 10° N
Cosmos 1627 Rocket 4.5 20:28:29 10° N 20:34:49 66° ENE 20:37:11 39° SE
Okean O Rocket 3.1 20:31:48 12° SSW 20:35:27 33° W 20:39:31 10° NNW
Cosmos 2208 Rocket 4.3 20:35:49 45° ESE 20:35:51 45° ESE 20:40:54 10° NE
NOSS 0 Rocket 3.8 20:33:18 10° SSW 20:39:33 83° ESE 20:45:51 10° NNE
Resurs 01 Rocket 4.1 20:37:20 10° SW 20:40:28 19° W 20:43:38 10° NW
USA 215 3.4 20:35:14 10° ENE 20:41:29 45° SE 20:47:42 10° SSW
Cosmos 1656 Rocket 4.4 20:39:41 10° NNW 20:45:02 40° NE 20:46:20 35° E
ATLAS 2AS CENTAUR R/B 4.4 20:38:48 10° WNW 20:45:03 31° NNW 20:51:04 10° NE
MINOTAUR IV R/B 4.4 20:40:43 10° NNW 20:45:17 79° ENE 20:45:44 70° ESE
Meteor 1-21 4.3 20:40:40 10° N 20:46:22 64° ENE 20:47:41 50° SE
Cosmos 2228 Rocket 3.7 20:42:21 10° N 20:46:31 43° ENE 20:46:31 43° ENE
Meteor 2-12 Rocket 4.4 20:41:41 10° N 20:47:50 67° ENE 20:49:33 47° SE
MOS 1 Rocket 3.7 20:45:58 36° S 20:47:55 66° W 20:53:07 10° NNW
BlueWalker 3 3.4 20:46:59 10° W 20:49:46 27° SW 20:49:46 27° SW
Cosmos 2237 Rocket 2.0 20:46:17 18° SSW 20:50:33 74° ESE 20:56:11 10° NNE
Okean-O 3.8 20:49:39 24° SSW 20:51:42 38° W 20:55:50 10° NNW
Cosmos 2297 4.3 20:47:23 10° NNW 20:52:43 41° NE 20:53:48 37° ENE
Cosmos 1805 3.8 20:55:18 47° N 20:55:18 47° N 20:58:00 10° N
Aureole 3 Rocket 4.0 20:47:44 14° S 20:54:27 89° W 20:59:53 10° N
ACS3 Solar Sail 3.0 20:50:27 10° SSW 20:56:23 40° W 21:02:23 10° NNW
Sich 1 2.9 20:57:04 78° SW 20:57:17 82° W 21:01:37 10° N
CZ-4C R/B 4.0 20:55:46 10° NNE 20:58:28 45° NNE 20:58:28 45° NNE
Cosmos 2219 Rocket 4.3 20:58:51 10° W 21:03:39 27° NW 21:08:27 10° NNE
Cosmos 2279 Rocket 4.1 21:06:50 51° E 21:07:08 51° E 21:13:08 10° NNE
BREEZE-M DEB (TANK) 3.5 20:53:18 10° W 21:09:33 80° S 21:10:46 57° ESE
Cosmos 1500 Rocket 4.1 21:11:22 46° WSW 21:12:12 55° WNW 21:16:31 10° N
Cosmos 1743 Rocket 3.8 21:16:41 64° WNW 21:16:41 64° WNW 21:20:54 10° N
USA 267 3.1 21:16:20 56° SE 21:17:52 81° SSW 21:24:29 10° WNW
Cosmos 1980 3.9 21:13:39 10° SW 21:19:18 70° WNW 21:25:01 10° NNE
Cosmos 2369 Rocket 2.5 21:15:38 10° NNW 21:21:14 52° NE 21:21:39 51° ENE
Cosmos 2298 Rocket 4.1 21:16:33 10° NNW 21:21:48 64° WSW 21:22:14 61° SW
Spot 2 Rocket 3.9 21:21:59 51° SW 21:22:39 55° W 21:27:36 10° NNW
Cosmos 1315 Rocket 4.5 21:19:47 10° NW 21:23:09 27° W 21:23:29 26° W
NOSS 3-3 (A) 4.2 21:25:46 47° ENE 21:25:46 47° ENE 21:30:34 10° NE
Cosmos 2150 Rocket 4.2 21:21:48 10° NNW 21:26:53 58° WSW 21:27:07 57° WSW
Cosmos 1975 4.2 21:32:52 36° NNW 21:32:52 36° NNW 21:35:22 10° N
NOSS 3-4 (A) 3.7 21:40:12 10° NW 21:46:53 79° NE 21:47:59 66° ESE
NOSS 3-4 (C) 3.7 21:40:18 10° NW 21:46:59 79° NE 21:48:05 66° ESE
Cosmos 1943 Rocket 3.6 21:42:37 10° NW 21:47:07 26° WSW 21:47:58 25° WSW
SL-16 R/B 2.9 21:49:08 42° NE 21:49:08 42° NE 21:52:54 10° NE
Okean 1-7 4.2 21:42:57 10° N 21:45:43 38° N 21:45:43 38° N
Terra 3.4 21:47:52 26° WSW 21:48:24 27° W 21:52:24 10° NW
Ariane Rocket 4.1 21:54:53 35° WSW 21:55:07 35° W 21:59:46 10° NNW
Cosmos 2266 Rocket 3.9 21:49:21 10° N 21:55:29 77° ENE 21:55:29 77° ENE
Cosmos 2263 4.4 21:52:08 10° NNW 21:57:25 66° NNE 21:57:25 66° NNE
Cosmos 2278 Rocket 4.5 22:00:16 10° WNW 22:03:05 14° W 22:04:48 12° WSW
Cosmos 1655 Rocket 4.1 22:10:01 10° N 22:15:58 72° NE 22:15:58 72° NE
USA 215 3.2 22:18:15 10° ENE 22:24:49 79° NNW 22:31:22 10° WSW
ARIANE 5 R/B 4.4 22:34:11 30° NNW 22:34:11 30° NNW 22:36:26 10° NNW
Cosmos 2237 Rocket 4.0 22:30:25 10° W 22:35:10 27° NW 22:39:57 10° NNE
ATLAS 2AS CENTAUR R/B 4.2 22:31:48 10° NW 22:37:56 31° NNE 22:43:40 11° ENE
Cosmos 2369 Rocket 3.7 23:00:00 10° NW 23:03:25 28° WNW 23:03:25 28° WNW
ATLAS CENTAUR R/B 4.3 23:11:25 12° NNE 23:11:25 12° NNE 23:11:49 10° NNE
Cosmos 1980 Rocket 4.5 23:24:48 10° N 23:28:40 19° NNE 23:31:53 12° ENE
Cosmos 1745 Rocket 4.5 23:23:57 10° N 23:29:08 57° NNE 23:29:08 57° NNE
SL-16 R/B 3.7 23:30:57 29° WNW 23:31:49 30° NW 23:36:49 10° NNE
